Weather History for Kerkyra, Greece

Change the Weather History Date:

Thursday, October 25, 2012

  Actual Average Record
Temperature  
Mean Temperature 66 °F -  
Max Temperature 75 °F 67 °F 77 °F (1999)
Min Temperature 57 °F 51 °F 44 °F (1996)
Cooling Degree Days 1    
Growing Degree Days 16 (Base 50)    
Moisture  
Dew Point 62 °F    
Average Humidity 90    
Maximum Humidity 100    
Minimum Humidity 65    
Precipitation  
Precipitation 0.00 in 0.23 in - ()
Sea Level Pressure  
Sea Level Pressure 29.93 in    
Wind  
Wind Speed 1 mph ()    
Max Wind Speed 6 mph    
Max Gust Speed -    
Visibility 6.3 miles    
Events      
Averages and records for this station are not official NWS values.
T = Trace of Precipitation, MM = Missing Value Source: Averaged Metar Reports

Daily Weather History Graph

Daily Weather History Graph

Search for Another Location

Airport:

Trip Planner

Search our weather history database for the weather conditions in past years. The results will help you decide how hot, cold, wet, or windy it might be!

Date:

Astronomy

Oct. 25, 2012 Rise Set
Actual Time 8:01 AM EEST 6:46 PM EEST
Civil Twilight 7:33 AM EEST 7:14 PM EEST
Nautical Twilight 7:02 AM EEST 7:45 PM EEST
Astronomical Twilight 6:30 AM EEST 8:17 PM EEST
Moon 4:23 PM EEST (10/25) 3:40 AM EEST (10/25)
Length of Visible Light 11h 40m
Length of Day
10h 45m
Waxing Gibbous, 82% of the Moon is Illuminated
Oct 25
Waxing Gibbous
Oct 29
Full
Nov 7
Last Quarter
Nov 14
New
Nov 20
First Quarter

Hourly Weather History & Observations

Time (EEST) Temp. Dew Point Humidity Pressure Visibility Wind Dir Wind Speed Gust Speed Precip Events Conditions
12:20 AM 62.6 °F 60.8 °F 94% 29.98 in 6.2 mi Calm Calm - N/A   Partly Cloudy
12:50 AM 62.6 °F 59.0 °F 88% 29.98 in 6.2 mi Calm Calm - N/A   Partly Cloudy
1:20 AM 62.6 °F 59.0 °F 88% 29.98 in 6.2 mi Calm Calm - N/A   Partly Cloudy
1:50 AM 60.8 °F 59.0 °F 94% 29.98 in 6.2 mi Calm Calm - N/A   Partly Cloudy
2:20 AM 60.8 °F 59.0 °F 94% 29.98 in 6.2 mi Calm Calm - N/A   Partly Cloudy
2:50 AM 59.0 °F 59.0 °F 100% 29.98 in 6.2 mi Calm Calm - N/A   Partly Cloudy
3:00 AM 60 °F 60 °F 99% 29.98 in 6 mi Calm Calm - -   Scattered Clouds
3:20 AM 59.0 °F 59.0 °F 100% 29.98 in 6.2 mi Calm Calm - N/A   Partly Cloudy
3:50 AM 59.0 °F 59.0 °F 100% 29.95 in 6.2 mi WNW 4.6 mph - N/A   Partly Cloudy
4:20 AM 59.0 °F 59.0 °F 100% 29.95 in 6.2 mi WNW 4.6 mph - N/A   Partly Cloudy
4:50 AM 59.0 °F 59.0 °F 100% 29.95 in 6.2 mi Calm Calm - N/A   Partly Cloudy
5:20 AM 59.0 °F 59.0 °F 100% 29.95 in 5.0 mi Calm Calm - N/A   Partly Cloudy
5:50 AM 59.0 °F 59.0 °F 100% 29.95 in 5.0 mi Calm Calm - N/A   Partly Cloudy
6:20 AM 59.0 °F 59.0 °F 100% 29.95 in 5.0 mi Calm Calm - N/A   Partly Cloudy
6:50 AM 59.0 °F 59.0 °F 100% 29.92 in 5.0 mi Calm Calm - N/A   Partly Cloudy
7:20 AM 59.0 °F 59.0 °F 100% 29.92 in 5.0 mi Calm Calm - N/A   Partly Cloudy
7:50 AM 57.2 °F 57.2 °F 100% 29.92 in 6.2 mi Calm Calm - N/A   Partly Cloudy
8:20 AM 57.2 °F 57.2 °F 100% 29.92 in 6.2 mi Calm Calm - N/A   Partly Cloudy
8:50 AM 57.2 °F 57.2 °F 100% 29.92 in 6.2 mi Calm Calm - N/A   Partly Cloudy
9:00 AM 58 °F 58 °F 100% 29.94 in 12 mi Calm Calm - -   Scattered Clouds
9:20 AM 59.0 °F 59.0 °F 100% 29.92 in 6.2 mi Calm Calm - N/A   Partly Cloudy
9:50 AM 62.6 °F 60.8 °F 94% 29.95 in 6.2 mi Calm Calm - N/A   Partly Cloudy
10:20 AM 66.2 °F 62.6 °F 88% 29.95 in 6.2 mi Calm Calm - N/A   Partly Cloudy
10:50 AM 68.0 °F 64.4 °F 88% 29.95 in 6.2 mi Calm Calm - N/A   Partly Cloudy
11:20 AM 71.6 °F 64.4 °F 78% 29.95 in 6.2 mi Calm Calm - N/A   Partly Cloudy
11:50 AM 71.6 °F 66.2 °F 83% 29.95 in 6.2 mi Calm Calm - N/A   Partly Cloudy
12:20 PM 73.4 °F 68.0 °F 83% 29.95 in 6.2 mi Calm Calm - N/A   Scattered Clouds
12:50 PM 73.4 °F 66.2 °F 78% 29.92 in 6.2 mi SE 4.6 mph - N/A   Scattered Clouds
1:20 PM 75.2 °F 68.0 °F 78% 29.92 in 6.2 mi SSE 4.6 mph - N/A   Scattered Clouds
1:50 PM 75.2 °F 66.2 °F 73% 29.92 in 6.2 mi SSE 4.6 mph - N/A   Scattered Clouds
2:20 PM 73.4 °F 66.2 °F 78% 29.92 in 6.2 mi SSE 3.5 mph - N/A   Scattered Clouds
2:50 PM 75.2 °F 66.2 °F 73% 29.89 in 6.2 mi West 5.8 mph - N/A   Scattered Clouds
3:00 PM 76 °F 67 °F 65% 29.91 in 12 mi West 5.8 mph - -   Partly Cloudy
3:20 PM 75.2 °F 66.2 °F 73% 29.89 in 6.2 mi West 5.8 mph - N/A   Scattered Clouds
3:50 PM 73.4 °F 68.0 °F 83% 29.89 in 6.2 mi WSW 4.6 mph - N/A   Scattered Clouds
4:20 PM 73.4 °F 68.0 °F 83% 29.89 in 6.2 mi NNE 5.8 mph - N/A   Scattered Clouds
4:50 PM 73.4 °F 68.0 °F 83% 29.89 in 6.2 mi NNW 3.5 mph - N/A   Scattered Clouds
5:20 PM 73.4 °F 68.0 °F 83% 29.89 in 6.2 mi WNW 3.5 mph - N/A   Scattered Clouds
5:50 PM 73.4 °F 66.2 °F 78% 29.89 in 6.2 mi West 3.5 mph - N/A   Partly Cloudy
6:20 PM 73.4 °F 66.2 °F 78% 29.89 in 6.2 mi West 3.5 mph - N/A   Partly Cloudy
6:50 PM 69.8 °F 66.2 °F 88% 29.89 in 6.2 mi Calm Calm - N/A   Partly Cloudy
7:20 PM 69.8 °F 66.2 °F 88% 29.89 in 6.2 mi Calm Calm - N/A   Partly Cloudy
7:50 PM 68.0 °F 62.6 °F 83% 29.89 in 6.2 mi WSW 3.5 mph - N/A   Partly Cloudy
8:20 PM 68.0 °F 62.6 °F 83% 29.89 in 6.2 mi Calm Calm - N/A   Partly Cloudy
8:50 PM 64.4 °F 62.6 °F 94% 29.89 in 6.2 mi Calm Calm - N/A   Partly Cloudy
9:00 PM 65 °F 62 °F 89% 29.91 in 6 mi Calm Calm - -   Scattered Clouds
9:50 PM 62.6 °F 60.8 °F 94% 29.92 in 6.2 mi Calm Calm - N/A   Partly Cloudy
10:20 PM 60.8 °F 59.0 °F 94% 29.92 in 6.2 mi Calm Calm - N/A   Partly Cloudy
10:50 PM 62.6 °F 60.8 °F 94% 29.92 in 6.2 mi Calm Calm - N/A   Partly Cloudy
11:20 PM 62.6 °F 60.8 °F 94% 29.92 in - Calm Calm - N/A   Clear
11:50 PM 60.8 °F 60.8 °F 100% 29.92 in - Calm Calm - N/A   Clear